West Palm Beach, FL

6:06 PM EDT on August 24, 2019 (GMT -0400)
Palm Beach International

Weather History for KPBI - May, 2019

Change the Weather History Date:

Wednesday, May 1, 2019

  Actual Average Record
Temperature  
Mean Temperature 77 °F 76 °F  
Max Temperature 83 °F 84 °F 93 °F (1971)
Min Temperature 71 °F 68 °F 54 °F (1999)
Degree Days  
Heating Degree Days 0 0  
Month to date heating degree days 0 0  
Since 1 July heating degree days 144 233  
Cooling Degree Days 12 11  
Month to date cooling degree days 12 11  
Year to date cooling degree days 937 706  
Growing Degree Days 26 (Base 50)    
Moisture  
Dew Point 68 °F    
Average Humidity 73    
Maximum Humidity 82    
Minimum Humidity 64    
Precipitation  
Precipitation 0.22 in 0.08 in 2.76 in (1932)
Month to date precipitation 0.22 0.08  
Year to date precipitation 15.94 14.28  
Snow  
Snow 0.00 in - - ()
Month to date snowfall 0.0  
Since 1 July snowfall 0.0  
Snow Depth 0.00 in    
Sea Level Pressure  
Sea Level Pressure 30.12 in    
Wind  
Wind Speed 16 mph (ENE)    
Max Wind Speed 33 mph    
Max Gust Speed 39 mph    
Visibility 9 miles    
Events Rain    
T = Trace of Precipitation, MM = Missing Value Source: NWS Daily Summary

Daily Weather History Graph

Daily Weather History Graph

Search for Another Location

Airport or City:

Astronomy

May. 01, 2019 Rise Set
Actual Time 6:42 AM EDT 7:52 PM EDT
Civil Twilight 6:18 AM EDT 8:17 PM EDT
Nautical Twilight 5:49 AM EDT 8:46 PM EDT
Astronomical Twilight 5:19 AM EDT 9:16 PM EDT
Moon 4:58 AM EDT (5/1) 5:04 PM EDT (5/1)
Length of Visible Light 13h 59m
Length of Day
13h 10m
Waning Crescent, 11% of the Moon is Illuminated
May 1
Waning Crescent
May 4
New
May 11
First Quarter
May 18
Full
May 26
Last Quarter

Hourly Weather History & Observations

Time (EDT) Temp. Heat Index Dew Point Humidity Pressure Visibility Wind Dir Wind Speed Gust Speed Precip Events Conditions
12:53 AM 77.0 °F - 66.0 °F 69% 30.16 in 10.0 mi East 18.4 mph - N/A   Scattered Clouds
1:53 AM 77.0 °F - 66.0 °F 69% 30.14 in 10.0 mi East 16.1 mph - N/A   Partly Cloudy
2:53 AM 77.0 °F - 64.9 °F 66% 30.13 in 10.0 mi ENE 16.1 mph 23.0 mph N/A   Partly Cloudy
3:53 AM 77.0 °F - 64.9 °F 66% 30.12 in 10.0 mi ENE 15.0 mph - N/A   Scattered Clouds
4:53 AM 75.9 °F - 64.0 °F 67% 30.10 in 10.0 mi East 13.8 mph - N/A   Scattered Clouds
5:53 AM 75.9 °F - 64.9 °F 69% 30.11 in 10.0 mi ENE 15.0 mph - N/A   Scattered Clouds
6:53 AM 77.0 °F - 66.0 °F 69% 30.13 in 10.0 mi ENE 13.8 mph 23.0 mph N/A   Scattered Clouds
7:36 AM 77.0 °F - 64.9 °F 66% 30.14 in 10.0 mi ENE 16.1 mph - N/A   Mostly Cloudy
7:53 AM 78.1 °F - 66.0 °F 66% 30.14 in 10.0 mi ENE 20.7 mph 25.3 mph N/A   Mostly Cloudy
8:24 AM 79.0 °F - 68.0 °F 69% 30.14 in 10.0 mi ENE 17.3 mph 24.2 mph N/A   Mostly Cloudy
8:53 AM 79.0 °F - 66.9 °F 66% 30.15 in 10.0 mi ENE 15.0 mph 25.3 mph N/A   Scattered Clouds
9:15 AM 79.0 °F - 66.9 °F 66% 30.15 in 10.0 mi ENE 19.6 mph 25.3 mph N/A   Mostly Cloudy
9:53 AM 75.0 °F - 69.1 °F 82% 30.16 in 10.0 mi East 13.8 mph - N/A   Mostly Cloudy
10:36 AM 80.1 °F 82.9 °F 69.1 °F 69% 30.16 in 10.0 mi ENE 15.0 mph 25.3 mph N/A   Mostly Cloudy
10:53 AM 79.0 °F - 68.0 °F 69% 30.16 in 10.0 mi ENE 15.0 mph - N/A   Mostly Cloudy
11:34 AM 82.0 °F 84.5 °F 66.9 °F 60% 30.16 in 10.0 mi ENE 19.6 mph 29.9 mph N/A   Mostly Cloudy
11:42 AM 77.0 °F - 66.9 °F 71% 30.18 in 1.5 mi East 31.1 mph 39.1 mph N/A Rain Heavy Rain
11:53 AM 71.1 °F - 66.0 °F 84% 30.17 in 1.5 mi East 8.1 mph 34.5 mph 0.11 in Rain Heavy Rain
11:57 AM 73.0 °F - 66.0 °F 79% 30.17 in 5.0 mi ENE 10.4 mph - N/A Rain Light Rain
12:53 PM 80.1 °F 82.9 °F 69.1 °F 69% 30.14 in 10.0 mi ENE 15.0 mph - N/A   Scattered Clouds
1:53 PM 75.9 °F - 72.0 °F 87% 30.13 in 6.0 mi ENE 12.7 mph - 0.02 in Rain Light Rain
2:53 PM 82.0 °F 85.5 °F 69.1 °F 65% 30.10 in 10.0 mi ENE 21.9 mph 27.6 mph N/A   Mostly Cloudy
3:53 PM 82.0 °F 85.5 °F 69.1 °F 65% 30.08 in 10.0 mi ENE 19.6 mph 28.8 mph N/A   Mostly Cloudy
4:53 PM 80.1 °F 82.9 °F 69.1 °F 69% 30.07 in 10.0 mi ENE 21.9 mph 28.8 mph N/A   Mostly Cloudy
5:53 PM 79.0 °F - 70.0 °F 74% 30.06 in 10.0 mi ENE 17.3 mph - N/A   Mostly Cloudy
6:53 PM 79.0 °F - 70.0 °F 74% 30.06 in 10.0 mi East 15.0 mph - N/A   Mostly Cloudy
7:53 PM 78.1 °F - 70.0 °F 76% 30.06 in 10.0 mi ENE 15.0 mph 23.0 mph N/A   Mostly Cloudy
8:53 PM 77.0 °F - 70.0 °F 79% 30.08 in 10.0 mi ENE 11.5 mph 24.2 mph N/A   Mostly Cloudy
9:53 PM 75.0 °F - 71.1 °F 87% 30.09 in 10.0 mi East 13.8 mph - 0.00 in Rain Light Rain
10:53 PM 77.0 °F - 70.0 °F 79% 30.09 in 10.0 mi East 15.0 mph - 0.00 in   Mostly Cloudy
11:53 PM 75.9 °F - 70.0 °F 82% 30.08 in 10.0 mi East 18.4 mph - 0.09 in   Scattered Clouds